[[{"header":{"parameterUnit":"m.s-1","parameterCategory":1,"la1":30.2991,"la2":30.254,"lo1":-89.0895,"lo2":-89.0444,"dy":0.0017,"dx":0.0017,"nx":28,"ny":28,"refTime":"2024-06-22T03:00:00:Z","depth":0,"parameterNumber":2,"parameterNumberName":"U-component_of_WINDS"},"data":[0,0,0,0,0,0,0,0,0,0,0,0,0,0,0,0,0,0,0,0,0,0,0,0,0,0,0,0,0,0,0,0,0,0,0,0,0,0,0,0,0,0,0,0,0,0,0,0,0,0,0,0,0,0,0,0,0,0,-0.3453,-0.3452,0,-0.3374,-0.3373,-0.3372,-0.3305,-0.3304,-0.3303,-0.3303,-0.3221,-0.3219,-0.3218,0,0,0,0,0,0,0,0,0,0,0,0,0,-0.3547,-0.3546,-0.3453,-0.3452,-0.3451,-0.3374,-0.3373,-0.3372,-0.3305,-0.3304,-0.3303,-0.3302,-0.3221,-0.3219,-0.3218,0,0,0,0,0,0,0,0,0,0,0,0,0,-0.3491,-0.3545,-0.3453,-0.3409,-0.3404,-0.3374,-0.3373,-0.3372,-0.3305,-0.3304,-0.3303,-0.3302,-0.3222,-0.322,-0.3217,-0.3226,0,0,-0.321,-0.3209,0,0,0,0,0,0,0,0,-0.3494,-0.3488,-0.3416,-0.3412,-0.3406,-0.3348,-0.3376,-0.3323,-0.3305,-0.3343,-0.3303,-0.3301,-0.3264,-0.3258,-0.3246,-0.3222,-0.3218,-0.321,-0.3209,-0.3208,-0.3207,0,0,0,0,0,0,0,-0.3498,-0.3491,-0.3422,-0.3415,-0.3409,-0.3393,-0.3383,-0.3365,-0.331,-0.3339,-0.3334,-0.3326,-0.3261,-0.3248,-0.3243,-0.3217,-0.321,-0.3208,-0.3207,-0.3206,-0.3197,-0.3198,0,0,0,0,0,0,-0.3509,-0.3494,-0.3424,-0.3419,-0.3448,-0.3392,-0.3381,-0.3368,-0.331,-0.3301,-0.3327,-0.3323,-0.3252,-0.3246,-0.324,-0.3247,-0.3208,-0.3206,-0.3205,-0.3196,-0.3197,-0.3199,0,0,0,0,0,0,-0.3511,-0.3503,-0.3428,-0.3455,-0.3445,-0.3391,-0.3377,-0.3367,-0.3354,-0.3301,-0.3291,-0.3324,-0.3251,-0.3243,-0.323,-0.3243,-0.3205,-0.3203,-0.3195,-0.3196,-0.3198,-0.326,0,0,0,0,0,0,-0.3514,-0.3505,-0.3507,-0.3456,-0.3443,-0.3419,-0.3377,-0.3366,-0.335,-0.3344,-0.3295,-0.3286,-0.325,-0.3234,-0.3228,-0.3239,-0.3201,-0.3193,-0.3195,-0.3197,-0.3257,-0.3264,-0.327,0,0,0,0,0,-0.3518,-0.3527,-0.3508,-0.35,-0.3445,-0.342,-0.3413,-0.3371,-0.3352,-0.3354,-0.332,-0.3288,-0.3243,-0.3233,-0.3226,-0.3237,-0.3192,-0.3195,-0.3197,-0.3254,-0.3262,-0.327,0,0,0,0,0,0,-0.3581,-0.352,-0.3497,-0.3491,-0.3461,-0.3409,-0.341,-0.3381,-0.3356,-0.3352,-0.33,-0.329,-0.3283,-0.3258,-0.3248,-0.3242,-0.3213,-0.3214,-0.3259,-0.3266,-0.3273,-0.3279,-0.3199,0,0,0,0,0,-0.3594,-0.3579,-0.3526,-0.3525,-0.3512,-0.3464,-0.3451,-0.3421,-0.3389,-0.3376,-0.3341,-0.331,-0.3289,-0.3276,-0.3254,-0.3253,-0.3242,-0.3257,-0.3263,-0.3269,-0.3271,-0.327,-0.3276,-0.3207,-0.3207,-0.3207,0,0,-0.3621,-0.3586,-0.3579,-0.3537,-0.3511,-0.3496,-0.3453,-0.3439,-0.3428,-0.3373,-0.3359,-0.3333,-0.3295,-0.3289,-0.3284,-0.3268,-0.3288,-0.3272,-0.3277,-0.3276,-0.3273,-0.328,-0.3285,-0.3208,-0.3208,-0.3208,0,0,-0.3663,-0.3635,-0.3631,-0.3606,-0.3567,-0.3535,-0.3534,-0.3486,-0.3467,-0.3452,-0.3411,-0.3397,-0.3361,-0.3337,-0.3319,-0.3353,-0.3323,-0.3347,-0.3382,-0.3381,-0.3387,-0.3391,-0.3405,-0.341,-0.3349,-0.3349,-0.335,0,-0.3702,-0.3678,-0.3633,-0.3622,-0.3605,-0.3555,-0.3552,-0.3529,-0.3485,-0.3475,-0.3457,-0.3413,-0.3384,-0.3371,-0.338,-0.3367,-0.3366,-0.3353,-0.339,-0.3394,-0.3397,-0.3409,-0.3414,-0.3353,-0.3352,-0.3352,-0.3352,0,-0.3728,-0.3712,-0.3714,-0.3673,-0.3656,-0.3649,-0.3604,-0.3592,-0.3564,-0.3534,-0.352,-0.3484,-0.3454,-0.3449,-0.3421,-0.3433,-0.3424,-0.3399,-0.3369,-0.3408,-0.3419,-0.3423,-0.3357,-0.3356,-0.3355,-0.3354,0,0,-0.3807,-0.3742,-0.3744,-0.3725,-0.3679,-0.3665,-0.3656,-0.3627,-0.3619,-0.359,-0.3582,-0.3554,-0.353,-0.3511,-0.348,-0.348,-0.351,-0.3454,-0.3453,-0.3467,-0.3522,-0.3542,-0.3548,-0.349,-0.3491,-0.3491,-0.3526,0,-0.3843,-0.3823,-0.3783,-0.3777,-0.3762,-0.3715,-0.3707,-0.3678,-0.365,-0.3634,-0.3603,-0.3584,-0.3554,-0.3543,-0.354,-0.3507,-0.3521,-0.3504,-0.3482,-0.3482,-0.3494,-0.3554,-0.3574,-0.3609,-0.353,-0.353,-0.3531,0,-0.3881,-0.3856,-0.3848,-0.3803,-0.3796,-0.3789,-0.376,-0.3745,-0.3711,-0.3691,-0.367,-0.3637,-0.3625,-0.3597,-0.3581,-0.3571,-0.3559,-0.3542,-0.3542,-0.3539,-0.3509,-0.3553,-0.3619,-0.3625,-0.3536,-0.3536,-0.3536,0,-0.3941,-0.3905,-0.3896,-0.3881,-0.3828,-0.3825,-0.3803,-0.3768,-0.3754,-0.3729,-0.3719,-0.3692,-0.3678,-0.3659,-0.3619,-0.3602,-0.3608,-0.3576,-0.3591,-0.3593,-0.3595,-0.3595,-0.3661,-0.3586,-0.3586,-0.3586,-0.3586,0,-0.3985,-0.3983,-0.3922,-0.3917,-0.3913,-0.3867,-0.3864,-0.3838,-0.3808,-0.3797,-0.3754,-0.3745,-0.3692,-0.3677,-0.3646,-0.3638,-0.3632,-0.3616,-0.3608,-0.362,-0.3622,-0.3612,-0.3609,-0.3588,-0.3587,-0.3587,-0.3587,0,-0.4052,-0.4011,-0.3999,-0.395,-0.3938,-0.3937,-0.3896,-0.3889,-0.3859,-0.3845,-0.384,-0.3792,-0.3773,-0.3731,-0.3699,-0.3679,-0.3678,-0.3663,-0.369,-0.3685,-0.3703,-0.3703,-0.3765,-0.3771,-0.3693,-0.3693,-0.3694,0,-0.4083,-0.408,-0.4031,-0.4021,-0.4001,-0.3984,-0.397,-0.3924,-0.3911,-0.3873,-0.3871,-0.3848,-0.3827,-0.3797,-0.376,-0.3736,-0.3721,-0.3745,-0.3717,-0.373,-0.3723,-0.3724,-0.3724,-0.3751,-0.3752,-0.3753,-0.3754,0,-0.4143,-0.4123,-0.4104,-0.4077,-0.4061,-0.4038,-0.4013,-0.4007,-0.3956,-0.3943,-0.3922,-0.3906,-0.3874,-0.3852,-0.3823,-0.38,-0.3769,-0.3763,-0.3765,-0.3778,-0.3795,-0.3787,-0.3708,-0.3762,-0.3761,-0.376,-0.376,-0.376,-0.4194,-0.4189,-0.4155,-0.4134,-0.4111,-0.4088,-0.408,-0.4049,-0.4031,-0.4002,-0.3976,-0.3958,-0.3925,-0.3883,-0.3863,-0.3848,-0.3833,-0.3836,-0.3837,-0.3839,-0.3845,-0.3796,-0.3842,-0.3842,-0.3842,-0.3842,-0.3841,0,-0.4253,-0.4228,-0.421,-0.4176,-0.4161,-0.4132,-0.4103,-0.4092,-0.4077,-0.4049,-0.4029,-0.4006,-0.3985,-0.3947,-0.3922,-0.3918,-0.3903,-0.3913,-0.3914,-0.3909,-0.3859,-0.386,-0.3926,-0.3926,-0.3926,-0.3926,-0.3926,-0.3926,-0.4282,-0.4273,-0.4249,-0.4229,-0.4204,-0.4186,-0.4172,-0.4152,-0.4129,-0.4106,-0.4088,-0.4063,-0.4031,-0.4004,-0.3984,-0.3973,-0.3966,-0.3981,-0.3966,-0.392,-0.3913,-0.3905,-0.3906,-0.398,-0.398,-0.4018,-0.4018,-0.4018]},{"header":{"parameterUnit":"m.s-1","parameterCategory":1,"la1":30.2991,"la2":30.254,"lo1":-89.0895,"lo2":-89.0444,"dy":0.0017,"dx":0.0017,"nx":28,"ny":28,"refTime":"2024-06-22T03:00:00:Z","depth":0,"parameterNumber":3,"parameterNumberName":"V-component_of_WINDS"},"data":[0,0,0,0,0,0,0,0,0,0,0,0,0,0,0,0,0,0,0,0,0,0,0,0,0,0,0,0,0,0,0,0,0,0,0,0,0,0,0,0,0,0,0,0,0,0,0,0,0,0,0,0,0,0,0,0,0,0,3.5157,3.5156,0,3.511,3.511,3.5109,3.5128,3.5129,3.513,3.5132,3.5077,3.5075,3.5072,0,0,0,0,0,0,0,0,0,0,0,0,0,3.5255,3.5254,3.5157,3.5156,3.5156,3.511,3.511,3.5109,3.5128,3.5129,3.5131,3.5132,3.5078,3.5075,3.5072,0,0,0,0,0,0,0,0,0,0,0,0,0,3.5211,3.5253,3.5157,3.516,3.516,3.511,3.511,3.5109,3.5128,3.5129,3.5131,3.5133,3.5079,3.5075,3.5071,3.5014,0,0,3.506,3.5058,0,0,0,0,0,0,0,0,3.5213,3.5207,3.516,3.5159,3.5159,3.5127,3.5125,3.5077,3.5127,3.514,3.5132,3.5134,3.5092,3.5087,3.5074,3.5012,3.501,3.506,3.5057,3.5056,3.5055,0,0,0,0,0,0,0,3.5217,3.5209,3.5138,3.5159,3.5159,3.5161,3.5157,3.5116,3.5106,3.5139,3.514,3.5135,3.5092,3.5078,3.5073,3.5009,3.506,3.5056,3.5054,3.5053,3.4897,3.4895,0,0,0,0,0,0,3.5221,3.5212,3.514,3.5137,3.5191,3.5158,3.5153,3.5135,3.5107,3.5105,3.5133,3.5136,3.5084,3.5078,3.5071,3.5002,3.5056,3.5052,3.505,3.4899,3.4896,3.4894,0,0,0,0,0,0,3.5223,3.5214,3.5141,3.5175,3.5166,3.5155,3.5135,3.5134,3.512,3.5103,3.5101,3.5121,3.5085,3.5077,3.5029,3.5001,3.5051,3.5047,3.4901,3.4898,3.4895,3.4864,0,0,0,0,0,0,3.5225,3.5215,3.5194,3.5174,3.5164,3.5101,3.5133,3.5131,3.5114,3.5117,3.5091,3.5088,3.5085,3.5034,3.5025,3.4997,3.5044,3.4903,3.4899,3.4896,3.4868,3.4861,3.4855,0,0,0,0,0,3.5229,3.5186,3.5193,3.5184,3.5139,3.51,3.5094,3.5093,3.5112,3.509,3.508,3.5089,3.5006,3.5029,3.5019,3.4989,3.4905,3.4901,3.4896,3.4871,3.4862,3.4855,0,0,0,0,0,0,3.52,3.5183,3.5191,3.5141,3.5122,3.5103,3.5076,3.5084,3.5058,3.5061,3.5059,3.5053,3.5004,3.4992,3.5018,3.4932,3.4958,3.4951,3.4942,3.4934,3.4927,3.493,3.5041,0,0,0,0,0,3.5189,3.5161,3.5147,3.5103,3.5094,3.5087,3.507,3.5071,3.5051,3.5042,3.5028,3.5005,3.4974,3.4953,3.4924,3.4867,3.486,3.4841,3.4834,3.4829,3.4823,3.4791,3.4782,3.488,3.488,3.488,0,0,3.5163,3.5151,3.5133,3.5098,3.5083,3.5052,3.508,3.5046,3.5022,3.5036,3.4991,3.4979,3.4954,3.4902,3.4878,3.489,3.4795,3.4824,3.482,3.4816,3.4786,3.4777,3.4768,3.4877,3.4878,3.4878,0,0,3.5101,3.509,3.5052,3.5038,3.5017,3.5012,3.5003,3.4984,3.4978,3.4933,3.4942,3.4913,3.486,3.4841,3.4825,3.4757,3.4765,3.4747,3.4713,3.4682,3.4674,3.4667,3.4642,3.4633,3.4742,3.4742,3.4742,0,3.5071,3.5028,3.5031,3.4997,3.4981,3.4995,3.4956,3.4941,3.491,3.4897,3.4913,3.4846,3.483,3.4773,3.4757,3.4743,3.4732,3.475,3.4676,3.4669,3.4662,3.4638,3.4629,3.474,3.474,3.474,3.474,0,3.4992,3.4961,3.4934,3.4906,3.4887,3.485,3.4847,3.4826,3.483,3.4823,3.4776,3.4758,3.4725,3.4712,3.4714,3.4655,3.4663,3.4677,3.4702,3.4651,3.4628,3.4619,3.4737,3.4738,3.4738,3.4739,0,0,3.4909,3.4886,3.4875,3.4863,3.4841,3.4816,3.478,3.475,3.4732,3.471,3.4679,3.4634,3.4647,3.4628,3.4628,3.4601,3.4548,3.4618,3.4618,3.4605,3.448,3.447,3.4459,3.4553,3.4552,3.455,3.4482,0,3.4845,3.4784,3.4786,3.4728,3.4699,3.4713,3.4681,3.4663,3.4656,3.4629,3.462,3.4588,3.4608,3.4597,3.4571,3.456,3.4522,3.4565,3.4522,3.452,3.4526,3.4447,3.4435,3.4372,3.4473,3.4472,3.4471,0,3.4761,3.4739,3.4679,3.4662,3.465,3.4622,3.4594,3.4569,3.4548,3.4545,3.4525,3.453,3.4491,3.4519,3.4465,3.4494,3.4476,3.4468,3.4465,3.446,3.4491,3.4438,3.4352,3.4342,3.4457,3.4458,3.4459,0,3.4705,3.4661,3.4619,3.4608,3.4588,3.4567,3.4557,3.4539,3.4521,3.4496,3.4484,3.4455,3.4438,3.4414,3.441,3.4431,3.4355,3.4383,3.4349,3.4349,3.4331,3.4332,3.4239,3.4322,3.4322,3.4322,3.4323,0,3.4633,3.4595,3.4594,3.4568,3.4526,3.4529,3.4486,3.4478,3.4461,3.4432,3.4442,3.4414,3.4411,3.4382,3.4378,3.4333,3.4325,3.432,3.4319,3.4319,3.4319,3.4306,3.431,3.432,3.432,3.4321,3.4321,0,3.4563,3.4561,3.4516,3.4501,3.4496,3.4466,3.4452,3.4426,3.4421,3.4384,3.4376,3.4366,3.4333,3.4327,3.4286,3.4284,3.423,3.4234,3.4237,3.4237,3.4204,3.4207,3.4099,3.4084,3.4177,3.4176,3.4176,0,3.4516,3.4487,3.447,3.4453,3.4442,3.4414,3.4396,3.4398,3.4378,3.4353,3.433,3.4298,3.4272,3.4218,3.4206,3.4175,3.4177,3.4142,3.4172,3.4173,3.4175,3.4177,3.4173,3.4135,3.4134,3.4133,3.4133,0,3.4432,3.4433,3.4409,3.4384,3.4363,3.4343,3.4324,3.4308,3.4307,3.4285,3.4252,3.4232,3.4192,3.4159,3.4129,3.4116,3.4123,3.4123,3.4114,3.4112,3.4115,3.4112,3.422,3.4125,3.4126,3.4127,3.4127,3.4127,3.4371,3.4347,3.4331,3.4303,3.429,3.4272,3.4247,3.424,3.4214,3.4183,3.4185,3.4148,3.4128,3.4088,3.4073,3.4043,3.4054,3.4041,3.4037,3.4033,3.403,3.4121,3.4038,3.4038,3.4038,3.4038,3.4038,0,3.4287,3.4278,3.4253,3.4227,3.4205,3.4217,3.4197,3.4177,3.4145,3.4127,3.4103,3.4064,3.4033,3.4019,3.3988,3.3966,3.3969,3.3958,3.3959,3.3956,3.4022,3.4033,3.3957,3.3957,3.3957,3.3957,3.3957,3.3957,3.4241,3.42,3.4199,3.4151,3.4142,3.4108,3.4096,3.4079,3.4064,3.4022,3.3997,3.399,3.3973,3.394,3.3911,3.3908,3.3895,3.3883,3.3881,3.3943,3.3951,3.3959,3.3969,3.388,3.388,3.3817,3.3816,3.3816]}]]